Location: Unspecified
(41.5516°N, 88.1098°W)
Time: 05:00:07
(UTC-05:00)

Okean 3 - Visible Passes

Search period start: 17 April 2014 00:00
Search period end: 27 April 2014 00:00
Orbit: 584 x 612 km, 82.5° (Epoch: 17 April)

Date Brightness Start Highest point End Pass type
(mag) Time Alt. Az. Time Alt. Az. Time Alt. Az.
17 Apr 3.5 21:37:48 57° E 21:37:48 57° E 21:41:55 10° NNE visible
17 Apr 6.3 23:14:27 11° W 23:15:31 12° WNW 23:17:16 10° NW visible
18 Apr 3.4 21:47:37 60° SSW 21:48:22 87° W 21:52:39 10° N visible
19 Apr 5.4 20:20:40 11° ESE 20:22:10 12° E 20:23:54 10° ENE visible
19 Apr 4.1 21:57:19 31° SW 21:59:04 53° W 22:03:15 10° N visible
20 Apr 4.9 20:30:15 13° SE 20:32:39 19° E 20:35:42 10° NE visible
20 Apr 5.1 22:06:53 15° SW 22:09:49 33° WNW 22:13:41 10° NNW visible
21 Apr 4.3 20:39:39 11° SSE 20:43:11 30° E 20:46:55 10° NNE visible
21 Apr 5.8 22:17:20 10° WSW 22:20:37 21° WNW 22:23:54 10° NNW visible
22 Apr 3.7 20:49:39 10° SSE 20:53:45 49° E 20:57:52 10° NNE visible
22 Apr 6.4 22:29:14 10° WSW 22:31:28 14° WNW 22:33:42 10° NW visible
23 Apr 3.4 21:00:07 10° S 21:04:23 81° E 21:08:38 10° N visible
24 Apr 4.0 21:10:50 10° SSW 21:15:02 62° W 21:19:15 10° N visible
25 Apr 5.0 21:21:47 10° SW 21:25:45 38° WNW 21:29:43 10° N visible
26 Apr 5.8 21:33:03 10° SW 21:36:31 24° WNW 21:39:59 10° NNW visible
